Regional Weather Roundup
Issued by NWS

Home | Current Version | Previous Version | Text Only | Print | Product List | Glossary On
Versions: 1 2 3 4 5 6 7 8 9 10 11 12 13 14 15 16 17 18 19 20 21 22 23 24 25 26 27 28 29 30 31 32 33 34 35 36 37 38 39 40 41 42 43 44 45 46 47 48 49 50
000
ASUS45 KTFX 212019
RWRMT
MONTANA HOURLY WEATHER ROUNDUP
NATIONAL WEATHER SERVICE GREAT FALLS MT
219 PM MDT THU AUG 21 2014

NOTE: "FAIR" INDICATES FEW OR NO CLOUDS BELOW 12000 FEET WITH NO
SIGNIFICANT WEATHER AND/OR OBSTRUCTIONS TO VISIBILITY.

* THESE STATIONS ARE NOT UNDER NWS QUALITY CONTROL. THEY DO NOT
   REPORT WEATHER SUCH AS PRECIPITATION OR FOG.

MTZ001>007-043-212100-
WEST OF THE DIVIDE
CITY           SKY/WX    TMP DP  RH WIND       PRES   REMARKS
KALISPELL      CLOUDY    61  48  62 N12       30.07S
MISSOULA       PTCLDY    73  46  38 N8G20     29.99F
BUTTE          TSTM      66  45  47 S13       30.08F
MULLAN PASS    TSTM      54  50  86 N5        30.12R
* ESSEX        N/A       58  48  70 N/A        N/A
* LINCOLN      N/A       64  49  58 NE8G17     N/A
* LOOKOUT PASS N/A       61  51  70 N5         N/A
* POLSON       N/A       67  56  68 N3         N/A
* RONAN APT    PTCLDY    68  54  61 NW13       N/A
* SEELEY LAKE  N/A       64  47  54 W3G9       N/A
* THOMP F APT  PTCLDY    62  50  65 S6G12      N/A
* YAAK HILL    N/A       73  46  38 NW1        N/A
$$

MTZ008-052>055-212100-
SOUTHWEST MONTANA
CITY           SKY/WX    TMP DP  RH WIND       PRES   REMARKS
BOZEMAN        CLOUDY    61  52  72 CALM      30.10F
DILLON         PTCLDY    68  45  44 W6        30.07F
W YELLOWSTONE  CLOUDY    55  46  72 S10       30.17R
* THREE FORKS  PTSUNNY   61  36  39 E6         N/A
* BOULDER HILL N/A       59  42  53 NE9        N/A
* MONIDA PASS  N/A       58  48  70 SE14G21    N/A
* RAYNOLDS PAS N/A       57  41  55 SE5        N/A
* WHITEHALL    N/A       65  55  70 SE5        N/A
* WISE RIVER   N/A       67  41  39 SE6G11     N/A
$$

MTZ009>010-012-014-046-048-049-054-212100-
EAST SLOPES AND CENTRAL MONTANA
CITY           SKY/WX    TMP DP  RH WIND       PRES   REMARKS
CUT BANK       CLOUDY    54  52  93 N16       30.14R
GREAT FALLS    CLOUDY    61  52  72 NW7       30.09S
HELENA         PTSUNNY   68  48  49 VRB5      30.06F
MALMSTROM AFB  PTSUNNY   61  52  72 N6        30.10S
* CONRAD       PTSUNNY   54  54 100 W9         N/A
* DEARBORN     N/A       62  51  67 NE1G6      N/A
* EAST GLACIER N/A       49  45  86 NE8G15     N/A
* MONARCH      N/A       51  47  86 NW10       N/A
* PENDROY      N/A       53  51  93 N11G16     N/A
* ROGERS PASS  N/A       51  48  90 S2         N/A
* SAINT MARY   N/A       50  48  93 N3G8       N/A
* SWEET GRASS  N/A       53  53 100 NE11       N/A
* WHITE SULPH  N/A       55  51  86 S8         N/A
$$

MTZ011-013-016-021-035-040-045-047-050-051-212100-
NORTH CENTRAL MONTANA
CITY           SKY/WX    TMP DP  RH WIND       PRES   REMARKS
HAVRE          CLOUDY    66  55  68 N13       30.04R
LEWISTOWN      CLOUDY    63  52  68 N5        30.08S
* FORT BENTON  CLOUDY    64  54  70 NW6       30.07F
* CHESTER      N/A       63  50  63 NE11G18    N/A
* DENTON       N/A       63  51  65 NW9G14     N/A
* GEYSER       N/A       61  48  62 W16        N/A
* JUDITH GAP   N/A       60  49  67 VRB12G17    N/A
* LOMA         N/A       64  55  73 SW5        N/A
$$

MTZ017>020-022>027-061-062-212100-
NORTHEAST MONTANA
CITY           SKY/WX    TMP DP  RH WIND       PRES   REMARKS
GLASGOW        RAIN      64  57  78 N12       29.98R VSB 2 1/2
GLENDIVE       PTSUNNY   64  63  97 N13       29.99R
JORDAN         PTSUNNY   72  55  55 N8        29.99S
SIDNEY         CLOUDY    66  63  90 CALM      29.98S
WOLF POINT     PTSUNNY   72  61  68 E5        29.98R
* BEAVER HILL  N/A       73  59  62 W7G12      N/A
* CIRCLE       N/A       68  60  76 NE5G12     N/A
* LINDSAY DVD  N/A       70  58  66 NW9        N/A
* SACO         N/A       72  56  57 NE2G7      N/A
$$

MTZ028>042-056>058-212100-
SOUTHCENTRAL AND SOUTHEAST MONTANA
CITY           SKY/WX    TMP DP  RH WIND       PRES   REMARKS
BAKER          PTSUNNY   77  55  47 NW9       29.98S
BILLINGS       LGT RAIN  64  55  73 NE7       30.05S
LIVINGSTON     LGT RAIN  59  54  84 VRB3      30.10R
MILES CITY     PTCLDY    75  54  48 VRB6      29.97F
* LAUREL APT   CLOUDY    64  55  73 N/A        N/A
* ROUNDUP APT  CLOUDY    64  52  65 N6         N/A
* ALZADA       N/A       80  49  34 NW2        N/A
* HYSHAM       N/A       70  48  46 NE4G10     N/A
* LAME DEER    N/A       68  52  57 N/A        N/A
* REED POINT   N/A       61  59  93 N6         N/A
* ROSCOE HILL  N/A       61  51  70 NE6        N/A
$$

REGIONAL REPORTS...DAKOTAS
CITY           SKY/WX    TMP DP  RH WIND       PRES   REMARKS
WILLISTON      CLOUDY    70  57  64 NW8       29.96S
DICKINSON      PTCLDY    79  61  54 N9        29.93S
BEACH          N/A       73  59  62 W9        29.97S
CROSBY         CLOUDY    66  63  90 N13       29.97R
TIOGA          PTSUNNY   72  63  73 NW13G18   29.97F
WATFORD CITY   PTSUNNY   72  57  59 N13G18    29.94R
BISMARCK       PTCLDY    81  64  56 NW13      29.87S HI  83
GRAND FORKS    CLOUDY    75  68  79 CALM      29.79R
FARGO          CLOUDY    75  70  85 E10       29.78R
BUFFALO SD     SUNNY     82  55  40 NE8       29.89S HI  81
RAPID CITY     PTCLDY    81  55  41 SE8       29.96F HI  81
$$

REGIONAL REPORTS...WYOMING/IDAHO/WASHINGTON
CITY           SKY/WX    TMP DP  RH WIND       PRES   REMARKS
GILLETTE       SUNNY     79  52  39 VRB3      30.00F
SHERIDAN       CLOUDY    72  50  46 W6        30.02S
CODY           CLOUDY   N/A N/A N/A NE6       30.08F
YELLOWSTONE LA CLOUDY    48  45  89 VRB6      30.25R
SALMON         PTCLDY    72  52  49 NE5       29.99F
MULLAN PASS    TSTM      54  50  86 N5        30.12S
SAND POINT     SUNNY     73  52  48 N7        29.98F
SPOKANE        PTSUNNY   73  48  41 CALM      29.98S
$$

REGIONAL REPORTS...ALBERTA
CITY           SKY/WX    TMP DP  RH WIND       PRES   REMARKS
CALGARY        LGT RAIN  54  45  72 NE8       30.20S
LETHBRIDGE     LGT RAIN  52  50  93 N7        30.18R
MEDICINE HAT   LGT RAIN  55  54  96 NE8       30.13R
EDMONTON       PTSUNNY   59  41  51 VRB2      30.19S
WATERTON GATE  N/A       52  46  80 NE6        N/A
CARDSTON       N/A       50  50 100 N8         N/A
MILK RIVER     N/A       54  52  93 N15        N/A
$$

REGIONAL REPORTS...SASKATCHEWAN
CITY           SKY/WX    TMP DP  RH WIND       PRES   REMARKS
SWIFT CURRENT  CLOUDY    61  55  81 N17       30.05S
MOOSE JAW      CLOUDY    66  57  73 N8        30.03R
REGINA         CLOUDY    64  55  73 N17       30.00R
VAL MARIE      N/A       64  55  73 NE9        N/A
ASSINIBOIA     N/A       66  52  61 N12G17     N/A
CORONACH       N/A       68  55  63 N9         N/A

$$




USA.gov is the U.S. government's official web portal to all federal, state and local government web resources and services.